[[{"header":{"parameterUnit":"m.s-1","parameterCategory":1,"la1":30.2991,"la2":30.254,"lo1":-89.0895,"lo2":-89.0444,"dy":0.0017,"dx":0.0017,"nx":28,"ny":28,"refTime":"2023-08-17T09:00:00:Z","depth":0,"parameterNumber":2,"parameterNumberName":"U-component_of_WINDS"},"data":[0,0,0,0,0,0,0,0,0,0,0,0,0,0,0,0,0,0,0,0,0,0,0,0,0,0,0,0,0,0,0,0,0,0,0,0,0,0,0,0,0,0,0,0,0,0,0,0,0,0,0,0,0,0,0,0,0,0,-0.0322,-0.032,0,-0.0174,-0.0172,-0.017,-0.0076,-0.0075,-0.0075,-0.0074,0.008,0.0084,0.0087,0,0,0,0,0,0,0,0,0,0,0,0,0,-0.052,-0.0516,-0.0322,-0.032,-0.0318,-0.0174,-0.0172,-0.017,-0.0076,-0.0075,-0.0075,-0.0074,0.0079,0.0083,0.0087,0,0,0,0,0,0,0,0,0,0,0,0,0,-0.0409,-0.0515,-0.0322,-0.0254,-0.0246,-0.0174,-0.0172,-0.0169,-0.0076,-0.0075,-0.0075,-0.0074,0.0078,0.0083,0.0088,0.0105,0,0,0.0105,0.0107,0,0,0,0,0,0,0,0,-0.0415,-0.0402,-0.0266,-0.0258,-0.025,-0.0142,-0.0185,-0.0077,-0.0076,-0.0141,-0.0074,-0.0073,0.0006,0.0017,0.0043,0.0112,0.0118,0.0105,0.0108,0.0111,0.0112,0,0,0,0,0,0,0,-0.0423,-0.0408,-0.0263,-0.0264,-0.0254,-0.023,-0.0213,-0.0164,-0.0074,-0.0135,-0.0128,-0.0112,0.001,0.0037,0.0047,0.0121,0.0105,0.011,0.0113,0.0115,0.0212,0.0211,0,0,0,0,0,0,-0.0442,-0.0415,-0.0268,-0.0259,-0.0332,-0.0227,-0.0208,-0.0178,-0.0074,-0.0058,-0.0113,-0.0108,0.0028,0.0041,0.0053,0.008,0.0111,0.0116,0.0119,0.0213,0.0212,0.0211,0,0,0,0,0,0,-0.0447,-0.043,-0.0274,-0.0335,-0.0313,-0.0224,-0.0191,-0.0175,-0.0148,-0.0057,-0.004,-0.0101,0.0029,0.0045,0.0091,0.0087,0.0118,0.0123,0.0213,0.0212,0.0211,0.0133,0,0,0,0,0,0,-0.0453,-0.0432,-0.0426,-0.0335,-0.031,-0.0239,-0.0191,-0.0173,-0.0139,-0.0132,-0.0042,-0.0027,0.0031,0.0083,0.0096,0.0095,0.0127,0.0214,0.0213,0.0212,0.0137,0.013,0.0124,0,0,0,0,0,-0.046,-0.0453,-0.0426,-0.0409,-0.03,-0.024,-0.0225,-0.016,-0.014,-0.0132,-0.0074,-0.003,0.0085,0.0086,0.0103,0.0103,0.0215,0.0213,0.0212,0.014,0.0131,0.0124,0,0,0,0,0,0,-0.0545,-0.044,-0.0408,-0.0372,-0.0316,-0.0224,-0.0212,-0.0171,-0.0118,-0.0113,-0.0033,-0.0014,0.0024,0.0068,0.0068,0.0125,0.0155,0.0157,0.0094,0.0087,0.0081,0.007,0.0132,0,0,0,0,0,-0.056,-0.0521,-0.043,-0.0407,-0.038,-0.0302,-0.0273,-0.0227,-0.0165,-0.014,-0.0079,-0.002,0.003,0.0061,0.0111,0.0143,0.0165,0.0151,0.0145,0.0139,0.014,0.0161,0.0156,0.0206,0.0206,0.0206,0,0,-0.059,-0.0527,-0.0507,-0.0422,-0.0373,-0.0333,-0.0282,-0.0242,-0.0211,-0.0134,-0.0087,-0.004,0.0032,0.007,0.0091,0.0108,0.0131,0.0137,0.0132,0.0136,0.0159,0.0154,0.015,0.0205,0.0205,0.0205,0,0,-0.0623,-0.0573,-0.0547,-0.0499,-0.0426,-0.0373,-0.0368,-0.0282,-0.0248,-0.02,-0.0141,-0.0103,-0.002,0.0029,0.0065,0.005,0.0093,0.0064,0.0031,0.005,0.0047,0.0043,0.0039,0.0036,0.0064,0.0064,0.0064,0,-0.0669,-0.0607,-0.0539,-0.0502,-0.0466,-0.0396,-0.0369,-0.0325,-0.0239,-0.0215,-0.0197,-0.0091,-0.0038,0.0014,0.001,0.0036,0.0047,0.0055,0.0041,0.0039,0.0037,0.0034,0.0032,0.006,0.0061,0.0061,0.0062,0,-0.0667,-0.0625,-0.0613,-0.0532,-0.0495,-0.0464,-0.0389,-0.036,-0.0318,-0.0267,-0.0219,-0.0152,-0.0087,-0.0072,-0.003,-0.0014,-0.0005,0.0026,0.0058,0.0027,0.0026,0.0025,0.0055,0.0056,0.0057,0.0058,0,0,-0.075,-0.0632,-0.0628,-0.059,-0.0504,-0.047,-0.0435,-0.0372,-0.0348,-0.0291,-0.0258,-0.019,-0.016,-0.012,-0.0072,-0.0055,-0.007,-0.0025,-0.0023,-0.0035,-0.0047,-0.0071,-0.0074,-0.0042,-0.0042,-0.0042,-0.0053,0,-0.0769,-0.0704,-0.0641,-0.0597,-0.0557,-0.0489,-0.0459,-0.0402,-0.0354,-0.0312,-0.0258,-0.021,-0.0176,-0.0151,-0.0131,-0.0073,-0.0072,-0.0071,-0.001,-0.0008,-0.0029,-0.0075,-0.0099,-0.0113,-0.0054,-0.0054,-0.0054,0,-0.0784,-0.0731,-0.0683,-0.06,-0.0581,-0.0555,-0.0492,-0.0453,-0.0387,-0.0353,-0.0308,-0.0258,-0.0216,-0.019,-0.0131,-0.0132,-0.0103,-0.0071,-0.007,-0.0061,-0.0033,-0.0066,-0.0116,-0.0118,-0.0054,-0.0054,-0.0054,0,-0.0848,-0.0764,-0.0725,-0.0694,-0.0597,-0.058,-0.0539,-0.0472,-0.0438,-0.0383,-0.0359,-0.03,-0.0267,-0.0222,-0.0156,-0.0143,-0.0104,-0.0072,-0.0074,-0.0076,-0.0068,-0.0069,-0.0114,-0.0051,-0.0051,-0.0051,-0.0051,0,-0.0876,-0.085,-0.0752,-0.0728,-0.0696,-0.0624,-0.0593,-0.0546,-0.0487,-0.0452,-0.039,-0.0357,-0.0273,-0.0231,-0.0179,-0.0138,-0.0124,-0.0094,-0.0081,-0.0099,-0.0103,-0.0079,-0.0076,-0.0052,-0.0052,-0.0052,-0.0051,0,-0.0942,-0.0876,-0.0828,-0.074,-0.0717,-0.0698,-0.0622,-0.0595,-0.0544,-0.0499,-0.0485,-0.0403,-0.035,-0.0281,-0.0205,-0.0171,-0.0135,-0.0115,-0.0158,-0.015,-0.0155,-0.0156,-0.0185,-0.0185,-0.0124,-0.0125,-0.0125,0,-0.0964,-0.0942,-0.0852,-0.0824,-0.0785,-0.0741,-0.0706,-0.0634,-0.06,-0.0523,-0.0506,-0.0448,-0.0398,-0.0316,-0.0249,-0.0191,-0.0168,-0.0183,-0.0159,-0.0178,-0.0167,-0.0169,-0.0166,-0.0188,-0.0189,-0.019,-0.0191,0,-0.1011,-0.0979,-0.0931,-0.0872,-0.0832,-0.0782,-0.0729,-0.071,-0.0626,-0.0591,-0.0537,-0.0498,-0.0421,-0.0364,-0.0298,-0.0254,-0.0208,-0.0199,-0.0196,-0.0215,-0.024,-0.0226,-0.0173,-0.0198,-0.0198,-0.0197,-0.0197,-0.0196,-0.1054,-0.1031,-0.0964,-0.0913,-0.0866,-0.0818,-0.0788,-0.0733,-0.0686,-0.0619,-0.0579,-0.0526,-0.0459,-0.0365,-0.0324,-0.028,-0.0262,-0.0259,-0.0257,-0.0257,-0.0263,-0.0248,-0.0268,-0.0267,-0.0267,-0.0267,-0.0267,0,-0.1096,-0.105,-0.1004,-0.0932,-0.0891,-0.0853,-0.0792,-0.0761,-0.0715,-0.0657,-0.061,-0.0546,-0.0491,-0.042,-0.036,-0.0339,-0.0316,-0.0325,-0.0325,-0.0316,-0.0283,-0.0291,-0.0344,-0.0344,-0.0344,-0.0344,-0.0344,-0.0344,-0.1114,-0.1072,-0.1033,-0.0967,-0.092,-0.0868,-0.0837,-0.0792,-0.0745,-0.0678,-0.0632,-0.0586,-0.0523,-0.0458,-0.0405,-0.0385,-0.0365,-0.0381,-0.0355,-0.0325,-0.0318,-0.0312,-0.0319,-0.0377,-0.0377,-0.0391,-0.0391,-0.0392]},{"header":{"parameterUnit":"m.s-1","parameterCategory":1,"la1":30.2991,"la2":30.254,"lo1":-89.0895,"lo2":-89.0444,"dy":0.0017,"dx":0.0017,"nx":28,"ny":28,"refTime":"2023-08-17T09:00:00:Z","depth":0,"parameterNumber":3,"parameterNumberName":"V-component_of_WINDS"},"data":[0,0,0,0,0,0,0,0,0,0,0,0,0,0,0,0,0,0,0,0,0,0,0,0,0,0,0,0,0,0,0,0,0,0,0,0,0,0,0,0,0,0,0,0,0,0,0,0,0,0,0,0,0,0,0,0,0,0,3.2302,3.2303,0,3.2323,3.2323,3.2324,3.2306,3.2305,3.2304,3.2304,3.2323,3.2324,3.2325,0,0,0,0,0,0,0,0,0,0,0,0,0,3.2243,3.2245,3.2302,3.2303,3.2303,3.2323,3.2323,3.2324,3.2306,3.2305,3.2304,3.2303,3.2322,3.2324,3.2325,0,0,0,0,0,0,0,0,0,0,0,0,0,3.2267,3.2245,3.2302,3.2297,3.2296,3.2323,3.2323,3.2324,3.2306,3.2305,3.2304,3.2303,3.2322,3.2323,3.2325,3.2358,0,0,3.2331,3.2331,0,0,0,0,0,0,0,0,3.2266,3.2269,3.2297,3.2297,3.2297,3.2311,3.231,3.2335,3.2306,3.2302,3.2304,3.2302,3.2319,3.2321,3.2328,3.2359,3.236,3.2331,3.2332,3.2333,3.2333,0,0,0,0,0,0,0,3.2264,3.2268,3.2311,3.2298,3.2297,3.2292,3.2294,3.2314,3.2317,3.2303,3.2301,3.2304,3.2319,3.2326,3.2328,3.236,3.2331,3.2332,3.2333,3.2334,3.2415,3.2416,0,0,0,0,0,0,3.2264,3.2267,3.231,3.2311,3.2278,3.2294,3.2296,3.2307,3.2316,3.2317,3.2305,3.2303,3.2323,3.2326,3.2328,3.2364,3.2333,3.2334,3.2335,3.2414,3.2416,3.2417,0,0,0,0,0,0,3.2262,3.2268,3.2309,3.2289,3.2294,3.2296,3.2309,3.2308,3.2315,3.2318,3.2318,3.2312,3.2323,3.2326,3.235,3.2365,3.2335,3.2337,3.2413,3.2415,3.2416,3.2439,0,0,0,0,0,0,3.2261,3.2267,3.2281,3.2289,3.2295,3.2332,3.231,3.231,3.2319,3.2316,3.2325,3.2325,3.2322,3.2348,3.2352,3.2367,3.2338,3.2412,3.2414,3.2416,3.2437,3.2441,3.2445,0,0,0,0,0,3.2259,3.2287,3.2282,3.2287,3.2312,3.2333,3.2336,3.2332,3.232,3.2332,3.2334,3.2325,3.2363,3.235,3.2355,3.2371,3.2411,3.2413,3.2416,3.2435,3.244,3.2445,0,0,0,0,0,0,3.228,3.2288,3.2282,3.2314,3.2323,3.233,3.2346,3.2339,3.2351,3.2348,3.2343,3.2345,3.2369,3.2373,3.2358,3.2401,3.2385,3.2388,3.2398,3.2403,3.2407,3.2404,3.234,0,0,0,0,0,3.2288,3.2305,3.2311,3.2338,3.2343,3.2344,3.2353,3.2349,3.2358,3.2361,3.2365,3.2372,3.2386,3.2395,3.2408,3.2438,3.2438,3.2451,3.2455,3.2458,3.246,3.2473,3.2478,3.2425,3.2425,3.2425,0,0,3.2306,3.2312,3.2323,3.2343,3.2349,3.2365,3.2347,3.2365,3.2376,3.2364,3.2386,3.2389,3.2397,3.2423,3.2435,3.2427,3.2475,3.2461,3.2464,3.2464,3.2476,3.2481,3.2485,3.2427,3.2426,3.2426,0,0,3.2344,3.2353,3.2374,3.2381,3.2391,3.2391,3.2396,3.2404,3.2405,3.2427,3.2417,3.243,3.2454,3.246,3.2465,3.2504,3.2495,3.2509,3.2529,3.2541,3.2545,3.2549,3.256,3.2564,3.2512,3.2512,3.2512,0,3.2364,3.2389,3.2387,3.2405,3.2412,3.2402,3.2422,3.2429,3.2442,3.2447,3.2438,3.2466,3.2472,3.2497,3.2506,3.2513,3.2516,3.2507,3.2545,3.2549,3.2552,3.2563,3.2567,3.2513,3.2513,3.2513,3.2513,0,3.2411,3.2428,3.2445,3.2457,3.2467,3.2487,3.2485,3.2495,3.2491,3.2491,3.2513,3.2518,3.2531,3.2537,3.2533,3.2561,3.2556,3.2546,3.2529,3.2559,3.2568,3.2572,3.2515,3.2515,3.2514,3.2514,0,0,3.2463,3.2473,3.2479,3.2483,3.2493,3.2505,3.2523,3.2536,3.2543,3.2553,3.2566,3.2586,3.2576,3.2583,3.258,3.2591,3.2617,3.258,3.258,3.2584,3.2645,3.2651,3.2655,3.2612,3.2613,3.2614,3.2644,0,3.25,3.2532,3.2529,3.2559,3.2572,3.2562,3.2577,3.2584,3.2585,3.2595,3.2596,3.2609,3.2597,3.2601,3.2612,3.2612,3.2629,3.261,3.2622,3.2623,3.2618,3.2661,3.2667,3.2695,3.2648,3.2648,3.2649,0,3.2547,3.2557,3.2588,3.2593,3.2598,3.2613,3.2622,3.2634,3.264,3.2639,3.2646,3.264,3.2656,3.2641,3.2661,3.2648,3.2653,3.2654,3.2655,3.2654,3.2636,3.2658,3.2704,3.2707,3.2655,3.2655,3.2654,0,3.2578,3.26,3.262,3.2624,3.2631,3.2641,3.2644,3.2649,3.2656,3.2665,3.2668,3.2679,3.2684,3.2691,3.2687,3.2677,3.2708,3.2693,3.2706,3.2706,3.2711,3.271,3.2756,3.2719,3.2719,3.2719,3.2718,0,3.2617,3.2636,3.2633,3.2645,3.2665,3.2661,3.268,3.2682,3.2687,3.2698,3.269,3.2701,3.2697,3.2706,3.2704,3.2719,3.2723,3.2721,3.2719,3.272,3.272,3.2722,3.2719,3.272,3.2719,3.2719,3.2719,0,3.2654,3.2654,3.2674,3.2679,3.268,3.2694,3.2698,3.2708,3.2708,3.2722,3.2725,3.2725,3.2735,3.2733,3.2745,3.2743,3.2762,3.276,3.276,3.2758,3.2771,3.2769,3.2817,3.2822,3.2784,3.2784,3.2785,0,3.2678,3.2691,3.2697,3.2704,3.2708,3.272,3.2726,3.2723,3.273,3.2737,3.2746,3.2756,3.2764,3.2782,3.2781,3.279,3.2786,3.2802,3.2787,3.2787,3.2783,3.2781,3.2781,3.2804,3.2805,3.2805,3.2806,0,3.2719,3.2717,3.2728,3.2737,3.2745,3.2752,3.2759,3.2765,3.2762,3.277,3.2781,3.2787,3.2799,3.2808,3.2816,3.2818,3.281,3.2811,3.2814,3.2813,3.2812,3.281,3.2765,3.2809,3.2809,3.2808,3.2808,3.2808,3.2747,3.2758,3.2763,3.2774,3.2778,3.2784,3.2794,3.2795,3.2804,3.2813,3.2811,3.2823,3.2827,3.2836,3.2839,3.2848,3.2841,3.2846,3.2847,3.2848,3.2848,3.2812,3.2849,3.2849,3.2849,3.2849,3.2849,0,3.2785,3.2788,3.2798,3.2807,3.2815,3.2809,3.2815,3.2822,3.2832,3.2837,3.2845,3.2856,3.2865,3.2866,3.2874,3.288,3.2877,3.2882,3.288,3.288,3.2855,3.285,3.2885,3.2885,3.2885,3.2885,3.2885,3.2884,3.2806,3.2822,3.2821,3.284,3.2842,3.2854,3.2857,3.2862,3.2866,3.2879,3.2886,3.2887,3.2889,3.2897,3.2904,3.2904,3.2906,3.2913,3.2911,3.2886,3.2883,3.2879,3.2874,3.2914,3.2914,3.2936,3.2936,3.2936]}]]